Location: Newark
(25.7507°S, 31.4676°E)
Time: 09:01:23
(UTC+00:00)

Envisat - Visible Passes

Search period start: 21 January 2020 00:00
Search period end: 31 January 2020 00:00
Orbit: 764 x 766 km, 98.1° (Epoch: 21 January)

Date Brightness Start Highest point End Pass type
(mag) Time Alt. Az. Time Alt. Az. Time Alt. Az.
22 Jan 5.7 17:21:25 10° SSW 17:25:28 24° WSW 17:29:29 10° NW visible
23 Jan 6.3 02:50:05 10° ENE 02:53:04 16° ESE 02:56:03 10° SSE visible
24 Jan 6.4 17:48:34 10° SW 17:50:41 13° WSW 17:52:48 10° W visible
25 Jan 5.2 17:09:47 10° SSW 17:14:16 31° WSW 17:18:43 10° NW visible
26 Jan 6.6 02:40:07 10° E 02:41:54 12° ESE 02:43:41 10° SE visible
27 Jan 6.1 17:36:21 10° SSW 17:39:31 17° WSW 17:42:41 10° WNW visible
30 Jan 5.9 17:24:29 10° SSW 17:28:21 22° WSW 17:32:09 10° WNW visible
